Wind_Speed
39 35 31 28 26 27 29 31 34 35 35 35 35 34 34 35 33 31 29 29 31 36 39 37 37 37 37 36 37 38 38 38 39 39 40 41 42 42 43 43 44 45 46 46 47 47 48 48 49 49 50 52 53 55 56 56 57 58 58 58 61 65 65 63 63 66 68 68 69 70 70 70 71 73 74 73 72 73 74 76 78 80 80 81 81 82 82 83
40 38 35 32 28 27 27 29 33 35 35 35 35 35 35 35 35 34 33 33 36 40 41 38 38 38 38 38 40 41 41 42 42 42 43 44 45 46 47 47 48 49 49 50 50 51 51 52 52 53 53 53 55 56 57 59 60 61 61 61 65 67 66 65 66 68 71 72 72 71 72 73 74 76 77 76 75 76 78 79 80 81 82 83 84 84 85 86
40 41 38 36 32 27 27 28 31 34 36 36 36 37 37 37 37 36 37 39 41 42 42 41 41 41 40 40 42 43 44 44 45 46 47 47 48 49 50 51 52 52 53 53 53 54 54 55 56 57 57 58 58 59 60 61 62 63 63 65 69 69 68 68 68 70 74 75 74 73 74 75 77 79 80 79 79 80 81 82 83 84 85 86 88 88 88 89
38 42 41 39 36 31 28 28 29 31 35 37 38 38 39 40 40 40 41 42 43 43 43 44 44 43 43 43 43 44 45 46 47 48 49 50 51 51 51 52 53 54 54 55 55 56 56 57 58 59 60 62 62 62 64 65 65 65 66 68 71 71 70 71 72 74 77 79 78 76 77 78 80 81 83 83 84 84 84 85 86 88 89 90 91 92 92 92
35 40 42 41 39 36 32 29 29 31 33 35 38 39 40 41 42 43 44 44 45 45 45 46 46 46 45 44 44 45 46 46 47 48 49 50 51 52 52 52 53 54 55 56 56 57 58 59 60 61 62 64 65 65 66 68 69 69 69 72 74 74 73 73 75 78 81 82 82 81 81 81 82 84 86 87 88 87 86 87 89 91 92 93 94 94 94 95
33 37 41 43 42 40 37 34 32 32 33 34 36 38 40 41 42 43 44 45 46 46 46 46 46 46 46 45 45 46 46 46 46 47 48 49 50 51 52 52 53 54 55 55 56 57 58 59 60 60 61 63 65 65 66 67 69 69 71 74 76 76 75 76 78 81 83 85 85 85 85 84 84 86 88 90 90 90 89 89 90 92 94 96 96 97 97 97
31 33 38 42 44 44 42 38 36 35 34 35 36 37 39 41 41 42 43 43 44 44 44 44 44 45 45 45 45 46 46 45 45 46 47 48 49 50 51 52 53 54 54 55 56 57 57 58 59 60 61 62 64 65 66 67 68 68 70 74 76 76 76 76 79 81 83 85 86 87 87 86 86 88 90 92 92 92 92 92 92 93 96 97 98 99 99 100
30 31 34 40 44 46 46 43 40 38 37 37 37 37 39 41 42 43 43 42 42 42 42 42 42 43 43 43 44 44 45 45 46 47 47 49 50 51 52 53 54 55 56 57 58 59 60 61 62 62 63 65 66 67 69 70 71 71 72 75 78 79 79 79 81 84 85 87 87 88 88 88 88 90 91 92 94 95 95 95 94 94 95 97 98 99 101 102
31 30 31 35 40 45 47 48 46 44 42 40 40 39 39 41 42 44 44 44 44 44 44 44 44 45 45 45 45 46 46 48 48 49 49 50 51 53 54 55 56 58 59 61 62 64 65 66 67 68 69 70 70 71 72 73 75 75 75 77 80 83 82 83 85 87 88 90 90 90 90 91 91 92 92 93 95 96 98 98 97 96 96 97 99 100 101 102
32 30 29 31 35 40 44 48 50 50 48 45 44 43 42 42 43 44 45 46 46 47 47 47 47 48 49 50 50 51 51 52 53 54 54 55 56 57 58 59 61 62 64 65 67 68 69 71 71 72 73 74 74 75 76 76 78 78 78 79 81 84 84 84 86 88 90 91 91 91 92 93 93 94 94 95 96 98 100 100 101 101 101 101 102 103 104 105
32 30 28 28 29 33 38 43 47 51 52 51 49 48 47 46 45 45 45 46 47 47 47 48 49 49 51 52 53 54 55 56 57 59 59 60 61 62 63 64 66 67 68 69 70 71 72 73 73 74 75 76 76 77 77 78 79 80 80 81 82 84 85 86 87 89 92 93 94 94 94 95 96 97 98 99 100 102 103 105 106 107 107 107 107 108 108 109
32 30 27 26 27 29 31 35 40 45 50 54 54 53 52 51 51 50 49 49 49 50 50 50 51 51 52 53 54 56 57 59 60 61 62 63 63 64 65 66 67 67 68 68 69 69 70 71 72 73 74 75 76 77 78 79 80 82 83 83 86 87 88 90 91 93 96 97 98 98 98 98 99 100 102 103 105 106 108 109 110 111 112 112 112 112 113 113
31 29 26 25 26 27 28 30 32 37 43 49 53 56 56 56 56 55 55 54 54 54 54 55 55 55 55 56 56 57 58 59 61 62 63 64 65 65 66 67 67 68 69 69 70 71 72 73 74 76 77 79 80 81 83 85 86 88 89 89 91 93 93 95 96 97 99 100 101 101 102 102 103 104 105 106 108 109 111 111 112 112 113 113 113 114 114 114
30 28 26 25 25 25 26 27 28 30 34 39 44 50 54 57 58 60 60 59 59 58 58 57 57 58 58 59 59 60 60 61 62 62 64 65 66 67 68 69 69 70 71 72 73 75 76 77 79 80 82 83 84 85 86 88 89 91 92 92 93 94 95 97 98 99 101 103 104 104 104 104 105 106 105 106 107 108 109 109 109 109 109 109 110 110 111 111
29 27 25 25 24 24 24 25 26 27 29 31 35 39 43 48 52 56 59 60 62 62 62 61 61 60 60 61 61 62 63 63 64 64 65 66 67 68 69 69 70 71 72 73 74 75 77 78 79 80 82 83 84 85 87 89 91 92 93 94 96 96 97 98 100 101 101 103 103 103 102 102 102 102 101 101 103 103 103 103 104 104 104 105 105 106 106 107
28 27 25 24 23 23 22 23 25 26 28 29 31 32 35 38 41 45 48 52 55 57 59 60 61 61 61 62 62 62 63 63 64 64 65 66 67 68 69 70 71 72 73 75 76 77 78 80 81 83 85 87 87 88 90 92 93 94 94 95 96 96 96 96 96 96 96 97 97 97 97 97 97 97 97 98 100 101 102 102 102 102 103 103 103 103 104 104
27 26 23 22 22 22 22 23 24 25 26 28 29 30 32 34 36 38 40 43 46 49 51 53 55 57 58 60 61 62 63 64 65 65 66 67 67 69 70 71 72 73 75 76 77 78 79 81 83 85 86 88 89 89 90 90 91 91 90 90 90 90 90 91 91 91 92 93 93 93 94 95 95 95 95 95 96 97 98 97 97 97 97 97 97 97 98 98
26 25 22 21 21 21 22 23 24 25 26 27 28 29 30 32 33 35 37 39 41 43 46 48 50 52 54 56 57 59 60 61 62 63 64 65 66 67 68 69 70 71 72 73 75 76 77 78 80 82 83 83 84 84 84 85 85 86 85 85 86 87 87 87 88 88 88 87 87 86 87 88 87 87 86 86 87 88 88 88 88 88 88 88 88 89 90 90
25 23 20 20 21 21 22 23 24 25 25 26 27 28 29 30 32 33 34 36 38 40 42 44 46 48 49 51 52 54 55 56 57 58 59 60 61 61 63 64 64 66 68 69 70 72 73 74 76 78 78 78 79 80 81 82 82 82 82 81 81 80 80 80 80 80 79 78 78 78 78 78 78 78 78 78 79 80 81 82 83 83 83 83 83 84 85 86
23 20 19 20 21 22 23 23 24 24 25 26 27 27 28 29 30 31 32 33 35 36 37 39 40 42 43 45 46 47 49 49 50 51 53 54 55 56 58 59 60 62 65 66 67 69 71 72 74 76 76 77 77 76 76 76 75 74 73 73 73 72 72 73 74 74 75 74 73 73 73 73 73 73 73 73 74 75 76 78 79 79 79 80 80 81 82 83
20 19 19 20 21 22 23 23 24 24 25 25 26 26 27 27 27 28 29 29 30 31 32 33 34 35 37 38 39 41 42 44 45 47 49 51 53 55 57 58 59 62 64 65 67 68 69 70 71 72 72 71 70 70 69 68 67 66 66 67 67 68 68 68 69 70 71 70 69 69 70 70 69 69 70 70 71 71 72 74 75 76 77 78 79 80 81 82
18 18 19 20 21 22 23 23 24 24 24 24 24 24 24 24 24 24 25 25 26 27 28 29 30 32 33 35 37 39 41 43 45 47 50 52 54 55 57 59 61 62 64 66 66 66 66 66 65 65 64 64 63 64 64 63 63 62 62 62 63 64 64 64 65 66 67 67 66 67 68 68 67 68 70 70 70 70 72 73 75 76 77 78 79 80 81 82
18 18 19 20 21 22 22 23 23 22 22 21 21 21 20 20 21 21 22 23 24 25 27 28 30 32 34 36 39 41 44 46 48 50 52 53 55 57 59 60 62 62 62 62 62 61 59 59 59 59 59 59 58 59 59 60 59 59 59 60 60 61 62 63 64 65 66 66 67 68 68 67 68 70 71 71 71 72 73 75 76 77 78 80 81 82 82 83
17 18 19 20 20 21 21 21 21 20 19 18 18 18 18 19 19 20 22 23 25 27 29 31 33 36 39 41 43 45 47 49 51 53 55 56 58 59 59 59 59 58 56 55 55 55 55 55 55 54 54 54 54 55 55 56 58 58 58 58 59 60 62 63 64 65 66 67 68 69 68 67 68 70 71 72 73 73 75 76 78 79 80 82 83 83 84 85
17 17 18 19 20 20 19 18 17 17 17 17 17 17 18 18 20 22 24 26 28 31 33 35 37 40 43 46 48 48 50 52 54 55 57 58 58 57 55 54 52 52 52 52 51 51 52 51 51 51 51 51 52 53 54 55 57 58 58 59 60 61 62 63 65 65 66 67 68 70 70 68 68 71 72 73 74 75 77 78 80 81 82 84 84 85 86 87
16 17 18 18 18 17 16 15 15 15 15 16 16 17 19 20 23 25 28 30 32 34 37 39 41 44 46 49 50 52 53 54 55 56 56 54 52 51 50 50 50 49 49 48 48 47 48 48 49 50 50 51 52 53 54 55 57 59 59 60 61 62 63 64 65 66 66 67 69 71 73 71 69 71 74 75 76 78 79 81 82 83 84 85 86 87 88 89
16 17 17 16 15 14 14 13 14 14 15 16 18 20 22 24 26 28 31 33 35 38 41 44 46 48 49 51 52 54 55 55 55 53 51 49 49 48 48 47 47 46 46 45 45 45 46 47 48 49 50 52 53 54 56 56 57 59 60 61 62 63 64 65 66 67 68 68 70 73 75 73 71 73 75 78 79 81 82 83 84 86 87 88 88 89 90 92
16 16 15 14 13 13 13 13 14 16 17 19 21 23 26 27 29 32 34 36 39 42 45 47 49 51 52 53 54 55 54 53 50 48 47 47 47 46 45 44 43 43 44 44 44 45 46 47 49 50 51 52 53 54 56 57 57 59 60 61 62 64 65 66 67 69 70 69 71 75 76 75 74 74 76 79 81 83 84 85 86 87 88 89 90 91 92 93
15 14 13 13 12 13 14 15 16 18 20 23 25 27 29 31 32 35 36 39 44 46 48 49 51 52 53 54 55 53 51 48 47 46 45 44 44 42 42 41 41 41 43 43 44 46 47 48 49 50 52 53 55 55 56 57 58 58 60 61 62 64 65 67 68 69 70 71 72 75 76 77 76 75 77 79 81 84 86 86 87 88 89 91 92 93 94 95
13 13 13 13 13 14 16 17 19 21 23 25 27 29 31 33 35 38 41 43 47 49 50 51 52 53 54 54 52 49 47 46 46 45 43 41 40 39 39 39 38 39 41 42 44 46 48 49 50 51 53 55 56 57 57 58 58 59 59 61 63 65 66 68 70 71 72 73 74 76 78 79 78 77 79 81 83 86 88 89 90 91 92 93 94 95 96 97
12 13 14 14 15 16 18 20 21 23 26 28 30 32 34 36 38 42 45 46 48 50 51 52 54 54 53 50 48 46 46 45 43 42 41 39 38 38 38 38 39 41 43 46 47 49 50 51 52 53 54 56 57 59 59 59 59 59 60 61 62 65 67 70 72 73 74 75 76 79 80 81 81 80 81 83 84 87 90 92 93 93 94 95 96 97 98 99
13 14 15 15 16 18 20 22 24 26 28 30 32 34 36 39 42 45 47 48 50 51 52 53 54 52 49 46 45 44 43 41 39 39 39 38 38 38 38 39 40 42 45 48 51 52 53 53 53 53 54 55 56 58 60 61 62 62 63 64 65 65 67 70 72 73 75 76 77 80 81 82 83 84 85 85 86 87 90 92 92 93 93 94 95 96 97 98
14 15 15 17 18 20 22 24 27 29 31 33 34 37 40 43 46 48 49 50 51 52 53 53 51 48 45 44 43 41 39 38 37 35 35 36 36 37 38 39 40 41 42 45 48 51 53 53 53 53 53 55 56 57 60 62 63 64 65 66 66 66 66 68 70 72 73 76 78 81 83 83 84 86 87 87 87 87 89 89 89 90 91 91 92 93 94 95
15 16 17 19 20 22 25 27 29 31 32 34 37 41 44 46 48 49 50 51 52 53 52 49 47 45 43 42 40 38 37 36 36 35 35 35 36 38 39 41 43 43 44 46 47 50 51 51 51 52 53 54 56 58 60 62 63 64 65 66 66 66 66 67 69 71 72 74 77 81 83 84 84 85 86 86 85 85 85 85 85 86 87 88 89 90 91 92
16 17 19 21 23 25 27 29 31 32 35 38 41 44 46 48 49 50 51 52 53 51 48 45 44 43 41 38 37 36 35 34 34 35 35 36 38 39 40 42 44 46 46 47 48 50 52 52 52 53 55 56 57 60 62 64 65 66 67 69 69 70 69 70 72 74 74 75 78 80 81 82 82 82 82 82 82 81 81 81 82 82 83 84 85 87 88 89
18 19 21 23 25 28 29 30 32 35 39 42 45 46 48 49 50 51 51 52 50 47 44 43 41 39 37 36 35 34 33 33 33 34 35 38 39 40 41 42 44 45 45 46 46 49 53 54 55 56 58 58 59 61 63 65 66 68 69 71 72 73 73 72 73 76 78 79 80 80 80 80 79 78 78 79 78 78 77 78 78 79 80 81 82 83 84 86
19 21 23 26 28 29 30 33 36 39 42 45 46 48 49 50 50 51 51 49 46 43 42 40 38 36 35 34 33 33 33 33 33 34 36 38 40 41 42 43 44 45 45 45 46 48 53 55 56 57 59 60 61 63 65 65 67 68 68 70 72 73 74 75 75 77 80 82 82 82 80 78 77 76 76 76 76 75 75 75 75 76 77 78 79 80 81 82
21 23 26 28 29 31 33 37 40 42 45 46 47 49 49 50 50 50 48 45 42 41 39 36 35 34 34 33 33 33 34 35 36 36 37 39 41 42 43 43 44 44 46 47 49 50 53 56 57 58 59 61 63 65 66 67 69 71 70 70 71 71 73 76 78 79 80 80 80 80 79 77 74 73 73 73 73 73 73 73 73 73 74 75 76 77 78 79
23 26 28 29 31 34 37 40 42 44 46 47 48 49 49 49 49 47 44 42 40 38 36 34 33 33 32 32 32 33 34 36 37 38 39 40 42 43 43 43 44 46 48 50 51 52 53 56 59 60 61 63 65 67 69 71 72 74 74 72 72 71 72 76 79 80 79 78 76 74 74 74 72 71 70 70 70 70 70 70 71 71 72 72 73 74 75 76
26 28 29 31 34 37 40 42 44 46 47 48 48 48 49 49 46 43 41 39 37 35 34 33 32 32 32 32 33 34 35 37 38 39 41 42 42 42 44 45 47 49 51 53 53 54 56 58 61 64 65 67 69 70 72 72 72 73 72 71 70 71 74 78 81 82 80 77 74 70 69 70 69 67 67 66 66 66 66 67 67 68 69 69 70 70 71 73
27 28 30 34 37 40 42 44 46 47 47 47 47 48 48 46 42 40 39 37 35 34 32 32 31 32 32 33 34 35 36 38 40 41 41 42 42 43 45 48 51 53 54 55 56 57 59 61 63 66 68 69 71 72 72 71 71 70 69 68 69 71 74 77 80 80 78 74 71 68 66 65 64 63 62 62 62 62 62 63 63 64 65 66 66 67 68 69
28 30 34 37 39 41 44 45 46 47 46 46 47 47 45 42 40 38 36 34 33 32 31 31 31 32 32 33 35 36 38 39 41 41 42 42 44 46 48 51 54 55 56 56 58 59 61 63 66 68 70 71 72 73 72 70 68 67 66 66 68 71 75 76 76 75 74 71 68 66 64 62 60 59 59 59 59 59 60 60 60 61 62 63 63 64 65 66
31 33 36 38 41 43 44 45 46 46 46 47 47 44 41 39 38 36 34 32 32 31 31 32 32 32 33 34 35 37 39 40 41 42 43 44 46 49 52 54 56 57 58 59 60 62 63 65 67 70 72 73 74 74 72 69 66 64 64 66 68 72 75 75 74 71 70 68 65 63 62 61 59 58 57 57 57 57 58 58 59 60 60 61 62 64 65 66
33 35 37 40 42 43 44 45 45 45 46 46 44 41 38 37 35 33 32 32 31 31 32 32 32 33 34 36 37 37 39 40 42 43 45 47 49 52 55 57 58 59 61 62 64 65 66 67 68 70 72 72 71 70 68 66 64 62 62 64 68 71 73 73 71 69 66 65 62 59 59 59 57 55 55 55 55 55 56 57 57 58 58 59 60 61 62 63
34 36 39 41 42 43 44 44 44 45 46 44 40 38 37 35 33 32 31 31 31 32 32 32 33 34 35 37 38 40 41 42 43 45 47 49 52 55 57 59 61 62 63 65 66 68 69 70 70 71 71 69 67 65 62 61 60 59 61 63 67 70 71 71 70 67 65 64 62 59 58 59 57 55 53 52 52 52 53 54 54 55 56 57 58 59 59 60
36 38 40 41 42 43 43 43 45 45 43 40 37 36 34 33 32 31 31 31 32 32 32 33 34 35 37 38 40 41 42 44 45 47 49 52 55 58 60 61 62 64 65 67 68 70 71 72 72 72 71 69 67 64 61 59 58 59 61 63 67 69 71 71 69 67 65 64 64 62 59 59 58 57 55 53 52 52 52 53 54 55 56 57 58 59 60 60
37 39 40 41 42 42 43 44 45 43 40 37 36 34 33 32 31 31 31 32 32 32 33 34 35 37 39 41 42 43 44 45 47 49 52 55 58 61 62 63 64 66 67 69 71 72 73 74 73 72 71 69 65 63 61 60 59 60 62 64 67 69 70 70 70 68 65 64 63 63 61 60 59 59 58 57 56 56 55 55 55 55 56 57 58 59 60 61
37 39 40 41 41 42 43 44 43 40 37 36 34 32 31 31 31 31 32 32 32 33 34 35 37 38 40 42 44 45 46 48 50 52 55 58 60 62 64 65 66 68 70 72 73 74 74 73 73 71 69 67 64 62 60 60 60 62 63 65 67 69 70 70 70 68 66 64 63 63 63 62 62 61 61 60 60 59 59 59 58 58 58 59 60 61 62 62
38 39 40 41 41 42 44 43 40 37 35 34 32 31 31 31 32 32 33 33 33 33 34 36 37 39 41 42 43 45 47 50 52 55 58 61 63 64 65 67 69 71 72 74 74 74 73 72 71 69 66 64 62 60 58 59 60 63 65 66 67 69 70 71 70 69 68 66 64 63 62 63 63 62 62 61 61 61 61 61 61 61 61 61 62 62 62 63
37 39 40 41 42 43 43 40 36 35 34 32 31 30 31 31 32 33 33 33 33 34 35 37 39 40 42 43 44 46 49 51 54 57 60 62 64 65 67 69 71 73 74 74 73 72 71 70 68 66 64 62 60 59 58 59 61 63 66 68 69 70 70 70 70 69 68 67 65 63 62 62 63 63 62 61 61 61 62 62 62 63 62 62 62 63 63 64
37 39 40 41 42 43 40 36 35 34 32 30 30 30 31 32 33 34 33 33 33 35 37 39 41 42 43 44 46 48 50 53 56 59 62 64 66 68 70 73 74 74 73 72 71 71 70 68 66 64 62 61 59 58 58 59 61 64 67 69 71 71 71 71 71 70 69 68 67 66 65 64 64 65 65 64 63 63 63 64 64 65 65 65 64 65 65 66
38 39 40 41 42 40 36 34 34 32 30 30 30 31 32 33 34 34 33 33 34 36 38 40 41 43 44 46 48 50 53 56 59 62 64 66 69 71 73 75 75 73 72 71 70 69 67 65 63 62 61 60 60 59 59 59 61 64 66 69 72 73 73 72 72 72 72 71 70 70 69 68 68 68 69 69 67 66 67 67 67 67 68 69 69 68 68 68
Wind_Direction
202 201 202 210 224 230 222 217 221 224 223 222 221 222 223 225 228 229 230 232 235 239 240 239 238 240 243 244 245 245 244 244 244 245 245 246 247 248 250 251 252 252 252 252 252 252 253 254 255 256 257 258 259 259 260 259 259 259 259 259 260 260 260 260 260 259 258 258 258 258 259 259 259 259 259 259 259 260 260 260 261 262 263 262 262 261 262 262
203 202 204 207 215 230 232 221 219 222 224 226 226 226 226 227 229 230 230 231 233 237 241 244 246 247 248 248 248 248 248 247 247 248 249 250 251 252 253 253 254 255 255 255 255 254 255 255 256 256 257 258 259 260 260 261 260 260 260 261 261 261 261 261 261 262 261 260 259 260 261 261 260 261 261 261 261 261 262 262 263 264 265 265 265 265 265 265
205 204 205 207 211 223 234 232 225 222 223 225 229 230 229 228 227 229 232 233 235 238 243 247 249 252 252 252 251 251 251 251 251 251 251 252 253 254 255 255 255 256 257 258 258 258 258 259 259 259 260 260 261 262 262 262 262 262 262 262 262 262 263 263 263 263 263 262 260 260 261 262 263 263 263 263 263 263 264 264 265 265 266 266 267 267 267 267
209 208 207 208 211 217 226 234 233 229 225 225 228 231 232 231 228 227 229 234 237 241 243 246 247 250 252 253 253 252 252 253 253 253 254 254 254 255 256 256 256 256 257 258 259 260 260 261 262 262 263 262 262 263 264 264 263 263 263 263 263 263 264 264 265 265 265 264 262 261 261 262 264 265 265 264 264 264 265 266 266 266 266 266 266 266 266 267
212 212 211 210 211 215 220 226 230 232 231 230 230 232 234 235 234 231 231 234 238 241 244 245 247 249 252 254 254 254 254 254 255 255 255 256 256 257 258 258 258 258 259 259 260 261 262 262 263 263 264 264 264 263 264 266 266 265 264 265 265 264 265 265 266 266 266 265 265 264 262 262 263 265 265 265 265 265 265 266 267 267 267 266 266 266 266 266
216 215 215 213 213 215 218 221 225 228 230 232 235 236 237 237 238 238 237 238 240 242 244 246 247 249 251 253 254 255 255 255 256 256 256 257 258 258 259 260 260 261 261 262 262 263 263 263 264 264 264 265 265 265 265 265 266 267 266 266 266 266 266 266 266 266 267 267 267 266 265 264 265 265 266 266 267 267 266 266 266 267 268 268 267 267 267 266
222 219 218 217 216 217 218 220 222 225 227 230 234 237 241 241 242 244 243 243 244 245 246 248 250 251 252 254 255 256 256 256 257 258 259 259 260 260 261 262 262 263 264 265 265 266 266 266 266 266 267 267 268 268 268 267 267 268 269 269 269 268 267 267 268 267 267 268 268 267 267 267 266 266 266 267 268 268 267 266 266 266 267 268 268 268 268 267
228 224 222 222 221 221 221 222 223 224 227 230 232 234 240 242 245 248 248 249 249 249 250 252 254 255 256 257 259 261 261 262 263 264 265 265 266 267 267 266 267 267 268 268 269 269 270 270 270 270 270 270 270 270 270 270 269 268 269 271 272 271 270 270 270 270 270 269 269 269 269 269 268 268 268 268 269 269 269 268 267 266 267 267 268 268 268 268
234 230 226 226 226 225 226 226 227 227 229 231 232 234 237 239 243 246 248 252 252 251 252 254 256 257 257 258 259 260 262 263 264 265 265 266 267 268 268 268 268 269 269 270 270 271 272 272 272 273 273 272 272 272 271 271 270 270 269 269 270 271 271 272 272 272 272 272 271 271 271 271 271 271 271 271 272 272 271 271 270 269 268 268 268 268 268 268
237 237 233 231 230 230 231 231 232 233 234 234 233 234 237 238 241 242 244 249 251 252 254 256 258 258 258 258 258 258 259 260 261 262 262 262 263 264 265 266 267 267 268 269 269 270 271 272 272 272 273 273 273 273 273 273 272 272 271 270 270 271 271 272 272 272 272 272 272 272 272 272 273 273 273 273 273 273 273 273 273 272 271 270 270 270 270 270
239 242 241 239 237 235 235 235 235 236 237 238 237 236 237 239 241 242 243 245 247 251 255 258 260 260 260 260 260 260 261 261 261 262 262 263 263 264 265 265 266 267 268 269 270 271 271 272 272 273 273 274 274 274 274 274 273 273 273 272 272 272 273 273 273 273 273 273 274 273 273 273 274 274 274 274 274 274 274 274 274 274 273 272 272 272 272 272
241 245 246 246 246 243 240 239 238 238 238 239 240 239 240 240 242 244 245 246 249 251 254 256 258 260 261 261 261 261 262 263 263 263 264 265 265 266 267 267 268 269 269 270 271 271 271 272 272 272 272 273 273 273 274 274 274 273 273 273 274 274 274 274 274 274 274 274 275 274 274 275 275 275 275 275 274 274 274 274 274 274 274 274 274 273 273 272
244 249 252 253 252 251 249 246 243 241 240 241 241 242 242 243 243 245 247 249 251 254 255 256 257 259 260 260 261 262 262 263 264 264 265 265 266 267 268 269 269 270 270 270 270 271 271 271 272 272 272 272 273 273 273 273 273 274 274 274 274 274 274 274 275 275 275 275 275 276 276 276 276 275 275 275 275 275 275 275 274 275 275 275 274 274 273 273
248 253 257 258 258 256 255 253 250 247 245 244 244 244 245 245 246 247 249 251 253 255 257 258 259 260 260 261 262 262 263 264 265 265 266 266 267 267 269 270 271 272 272 272 272 272 272 273 273 273 274 274 274 274 274 274 274 274 275 275 275 275 275 275 276 276 276 276 277 277 277 277 276 276 276 276 275 275 275 275 275 275 275 274 274 273 273 273
251 256 260 262 262 260 258 257 255 254 252 250 249 248 248 249 249 250 251 252 254 256 258 259 260 261 262 263 263 264 264 265 266 267 267 268 269 269 270 271 271 272 273 273 273 273 274 274 274 274 274 274 274 274 274 274 274 275 275 275 276 276 276 276 276 277 277 277 277 277 277 277 277 277 277 277 277 276 276 276 276 276 275 275 274 274 273 273
254 260 263 265 264 263 261 259 258 258 258 257 256 255 254 253 253 253 254 255 256 257 258 260 261 261 262 263 263 264 265 266 267 268 269 269 270 271 271 271 272 272 272 273 273 273 273 273 274 274 274 274 274 275 275 275 276 276 276 277 277 277 277 277 277 277 277 277 278 278 278 278 278 278 278 278 278 278 278 277 277 277 276 276 275 275 274 274
258 262 264 264 265 264 263 263 263 263 263 263 262 262 261 260 259 258 258 258 258 259 260 261 262 262 263 263 264 265 265 267 268 269 270 271 271 272 272 273 273 273 273 274 274 274 274 274 274 274 275 275 276 276 277 277 278 278 278 279 279 279 279 279 279 279 279 279 279 279 279 279 279 279 279 278 278 278 278 278 277 277 277 276 276 276 275 274
260 264 264 263 265 266 267 268 269 269 268 268 267 266 265 264 264 263 263 262 262 262 263 263 264 265 266 266 267 268 269 270 271 272 272 273 273 274 274 275 275 275 275 275 276 275 276 276 276 276 276 277 278 278 279 279 280 280 280 280 280 280 280 280 280 280 280 280 280 280 280 279 279 279 279 279 278 278 278 278 277 277 277 277 276 276 275 275
262 264 264 264 267 269 270 272 274 274 273 272 271 270 269 267 267 266 266 266 266 266 266 266 267 268 268 269 270 271 272 272 273 274 275 275 276 276 276 277 277 278 277 277 278 278 278 278 278 279 279 280 280 281 281 281 281 282 282 282 281 281 281 281 280 280 280 280 280 280 280 280 280 280 280 279 279 279 279 279 279 279 278 278 278 277 277 276
261 262 263 265 269 271 274 276 277 277 277 276 275 274 273 271 270 270 269 269 269 268 269 269 270 270 270 271 272 273 274 274 275 276 277 277 278 278 278 278 279 279 280 280 280 280 280 281 281 282 282 283 283 283 283 283 283 283 283 283 283 282 282 282 282 282 282 281 281 281 280 280 280 280 280 280 280 280 281 281 281 280 280 280 279 279 278 277
258 259 262 266 270 274 278 280 281 281 280 279 278 277 277 276 274 273 273 272 272 272 272 272 273 274 275 276 277 278 279 280 281 281 282 282 283 283 283 283 283 283 282 282 282 282 283 283 284 284 285 285 285 285 285 284 284 284 284 284 284 284 284 284 283 283 283 284 284 284 283 283 283 283 283 282 282 282 283 283 283 282 282 281 281 280 279 279
255 258 263 268 273 278 282 283 283 283 282 281 280 279 279 279 278 277 277 277 278 279 280 280 281 282 283 285 286 286 287 288 288 288 288 288 288 288 288 288 287 287 287 286 286 286 286 286 286 286 286 287 287 286 286 286 286 286 285 285 286 286 286 286 286 286 286 287 287 287 286 287 288 287 285 285 285 285 284 284 283 283 283 282 282 281 281 281
255 259 265 271 278 282 284 285 285 284 284 284 283 283 282 282 282 283 285 286 287 289 290 291 291 292 292 292 293 294 295 295 295 294 293 293 293 292 292 291 290 290 290 289 289 289 288 288 288 287 287 288 288 288 289 289 289 289 289 289 290 290 290 289 289 289 290 290 289 288 289 290 289 288 288 288 287 286 285 285 284 283 283 282 282 282 282 282
255 262 270 277 282 284 284 285 285 286 286 287 287 287 287 288 290 292 294 296 297 297 297 297 298 299 299 299 299 299 299 299 299 298 297 297 296 295 294 293 292 291 291 290 290 290 289 289 288 288 288 289 290 290 291 292 292 292 292 293 293 292 292 292 292 292 292 291 291 290 290 290 289 288 289 288 288 287 286 285 284 283 283 283 283 282 282 282
260 269 276 280 282 282 284 285 286 287 288 289 290 291 294 297 300 302 302 302 302 302 301 301 302 303 303 303 302 302 302 301 301 300 299 298 296 295 295 294 293 293 292 291 291 291 291 291 291 291 292 292 292 293 293 294 294 294 295 295 294 294 293 293 293 293 293 292 292 292 291 290 290 290 290 289 288 287 286 285 285 284 284 284 283 283 282 282
267 274 277 279 280 282 284 286 287 288 291 293 295 298 302 305 306 306 306 305 305 305 305 305 306 305 305 304 304 304 304 302 301 300 298 297 297 296 296 295 294 294 293 293 294 294 295 295 295 295 295 295 296 296 297 297 297 297 297 297 296 296 295 295 295 295 294 294 294 294 292 293 293 292 292 291 290 289 287 287 286 286 285 284 284 284 283 282
270 273 275 277 279 282 284 285 287 290 295 299 302 305 307 308 309 308 307 307 307 307 307 307 307 306 306 305 305 305 304 302 301 300 299 299 298 298 297 297 297 297 297 297 297 297 297 297 298 298 299 299 299 299 299 299 299 299 299 299 298 298 297 297 297 297 297 297 296 295 294 295 295 293 293 292 290 289 288 287 286 285 285 284 284 284 283 282
268 270 272 275 277 280 283 286 291 295 300 305 308 309 310 310 309 308 308 308 308 308 308 307 307 307 307 306 305 305 304 302 301 301 300 300 299 299 299 299 300 300 300 300 301 301 301 301 301 301 301 300 300 300 300 300 300 300 300 300 299 299 299 299 298 298 298 298 296 295 295 295 294 293 292 291 290 289 288 287 286 285 285 284 283 283 282 281
266 267 270 273 276 280 286 292 297 302 307 310 310 311 310 309 309 308 308 308 308 308 308 308 308 308 307 307 306 305 304 304 303 302 302 302 302 302 303 304 305 306 305 305 304 303 302 302 302 302 303 303 302 302 302 301 301 301 301 301 300 300 299 299 298 298 297 296 295 295 295 294 294 293 292 291 290 289 288 287 286 285 285 284 283 282 282 281
264 266 268 273 279 286 293 299 303 306 309 310 310 310 309 309 308 308 308 308 308 308 309 309 309 308 308 307 307 306 306 305 305 304 304 304 305 305 305 305 305 305 303 303 302 302 302 304 305 306 306 306 305 304 303 303 302 302 302 301 301 300 300 300 299 299 299 298 298 297 296 296 296 295 293 292 291 290 289 288 287 286 285 284 284 283 282 281
264 266 270 276 284 292 298 302 304 307 308 309 309 309 309 308 308 308 308 309 310 310 310 310 310 309 309 308 307 307 307 307 307 307 307 307 307 307 307 307 307 307 306 307 307 307 308 309 310 309 308 307 306 306 305 304 304 303 302 302 302 302 302 302 302 302 301 301 300 299 298 297 297 296 294 292 291 290 289 287 287 286 285 284 283 282 282 281
265 268 273 281 290 297 301 303 306 308 309 310 310 308 307 307 308 309 310 311 311 311 311 311 310 310 309 309 308 308 308 308 308 309 310 310 311 312 312 312 312 312 312 312 311 310 310 310 310 309 308 308 308 307 307 307 307 307 306 306 305 305 304 303 303 303 302 302 301 299 298 298 298 297 295 293 291 290 288 287 286 285 284 284 283 282 282 281
268 272 279 288 295 299 303 306 308 310 310 309 308 307 307 308 310 311 312 312 313 312 312 311 310 310 309 309 309 309 309 309 309 310 311 312 312 311 310 310 309 309 309 309 309 309 309 310 310 310 309 309 309 309 308 308 308 308 307 307 306 306 305 304 303 303 303 302 302 300 300 299 299 297 296 294 293 290 289 288 287 286 285 284 283 282 282 281
271 279 287 294 298 302 306 308 309 310 309 307 307 307 309 310 311 312 313 314 313 313 312 312 311 311 311 311 311 312 312 312 313 313 313 312 311 311 311 312 312 312 312 312 311 309 309 309 310 310 310 310 310 310 310 309 309 309 308 308 307 307 306 305 304 303 303 303 303 302 302 301 300 298 296 295 293 292 290 290 288 287 286 285 284 283 282 282
277 286 293 298 301 305 307 308 308 307 307 306 307 308 310 312 313 314 314 314 313 313 312 312 312 312 312 313 314 314 315 315 315 314 313 313 313 313 314 314 314 315 315 314 314 312 312 312 313 313 313 313 313 313 312 312 312 311 310 310 309 308 308 307 307 307 307 306 305 304 304 302 301 299 297 296 295 294 292 291 289 288 287 286 285 284 284 283
285 292 297 300 304 306 306 306 306 305 306 307 308 310 312 313 314 315 314 314 313 313 313 313 313 314 314 315 315 315 315 314 313 313 313 313 313 314 315 315 315 315 315 315 315 314 315 315 317 317 317 317 316 315 314 314 313 312 311 310 310 309 309 309 309 310 310 310 309 308 306 305 303 301 300 298 297 296 294 292 291 290 289 288 287 286 285 284
291 295 299 302 304 304 304 304 304 305 307 308 310 312 314 315 315 314 314 314 314 314 314 314 315 316 317 317 317 316 314 313 312 312 313 314 315 316 317 317 316 316 316 316 316 317 318 318 319 319 319 318 318 316 315 314 313 312 312 311 311 310 310 311 312 312 313 313 312 311 309 307 306 304 302 301 299 298 296 295 293 292 291 290 289 288 287 286
294 297 300 302 302 302 303 304 305 307 308 310 312 314 314 315 315 315 315 315 314 315 315 317 318 318 319 318 317 316 315 314 314 315 316 317 318 318 318 317 317 317 318 319 320 321 321 320 320 320 319 319 318 317 316 315 315 314 314 313 312 312 313 313 314 315 316 315 314 312 310 308 308 306 304 302 301 299 298 297 296 295 293 292 291 290 290 289
295 298 300 300 300 302 303 305 306 308 310 312 313 314 315 315 316 316 316 315 316 317 318 319 320 320 319 318 317 317 316 317 318 319 320 320 319 319 319 319 319 320 321 322 323 323 322 321 320 320 319 319 318 318 318 318 317 316 316 316 316 316 316 316 317 318 318 317 315 313 310 309 309 307 305 304 302 301 300 299 298 297 296 295 294 293 293 292
296 298 298 298 300 302 304 306 308 309 311 313 314 315 316 316 316 317 317 317 318 320 321 322 321 320 319 318 317 317 317 318 320 321 321 321 320 320 320 321 322 324 325 325 324 323 322 321 321 320 320 320 320 320 320 319 318 317 317 318 318 318 319 320 320 320 320 319 317 315 312 311 311 309 307 306 304 303 302 301 299 298 297 296 296 295 294 293
295 296 296 298 301 303 305 307 308 310 312 314 316 316 317 317 317 318 318 320 321 323 323 322 321 320 319 318 318 319 320 321 322 322 322 321 321 322 323 324 325 326 325 324 323 322 322 321 320 320 320 321 321 320 319 319 319 318 319 319 320 320 322 322 322 322 321 320 319 318 316 314 313 312 310 308 306 305 304 302 301 300 299 298 297 296 295 294
294 295 297 300 302 304 306 308 310 312 314 316 317 317 318 318 319 320 321 323 324 324 323 321 320 319 319 319 321 323 323 323 323 322 322 323 324 325 326 327 326 325 324 323 322 321 320 320 321 321 321 321 321 320 320 321 321 321 321 321 322 323 324 325 325 324 323 323 323 322 320 319 318 316 314 312 310 309 307 306 304 303 302 301 300 299 298 297
295 297 299 301 303 305 307 310 312 314 316 317 318 319 319 319 321 323 324 325 324 323 322 321 320 320 320 322 323 324 324 323 324 324 325 325 326 327 328 327 326 324 323 322 321 320 320 321 322 322 322 322 323 323 323 323 323 323 323 324 325 326 326 327 328 327 327 326 327 326 324 323 323 321 319 317 316 314 312 311 310 309 308 307 306 305 305 304
296 298 300 302 305 307 309 312 314 316 318 319 319 320 320 322 324 325 325 325 324 323 322 321 321 322 323 324 324 324 324 325 326 326 327 327 328 328 328 327 325 324 323 322 321 321 321 322 322 322 323 324 324 324 323 323 323 323 324 325 326 328 329 330 331 331 330 330 330 330 329 327 327 325 324 323 321 318 317 315 314 313 312 311 309 309 308 307
296 299 301 304 306 309 312 314 316 318 319 320 320 321 322 324 325 326 326 325 324 323 322 322 323 324 324 324 325 327 328 328 328 328 328 328 328 328 327 326 325 324 323 323 322 322 322 323 323 323 324 324 323 323 323 322 322 323 325 327 329 330 332 334 335 335 334 334 334 335 334 332 331 330 329 327 325 323 321 319 318 316 315 314 313 312 312 310
298 301 304 306 309 312 314 316 318 319 320 320 321 322 324 326 326 326 325 324 323 323 323 323 324 325 326 327 328 329 330 330 330 329 329 329 328 328 327 326 325 324 324 324 324 323 324 324 325 325 325 325 325 325 324 324 324 326 328 330 332 333 336 337 338 338 339 339 339 339 339 337 336 335 334 333 331 328 326 324 323 322 321 320 319 317 316 314
300 304 306 309 311 314 316 318 319 320 321 321 323 324 326 326 326 326 325 325 324 324 324 325 326 328 330 331 331 331 331 330 330 330 329 329 329 328 327 326 326 325 325 325 325 325 326 326 327 327 327 327 327 327 327 327 328 329 330 332 334 336 338 340 341 342 343 344 343 343 342 342 341 340 340 339 338 336 334 332 330 328 326 324 322 321 320 319
303 306 309 311 314 316 318 319 320 321 321 322 325 326 326 326 326 326 325 325 325 325 326 327 329 331 332 332 332 331 331 331 331 330 330 329 328 328 327 327 327 327 327 327 328 328 328 328 329 328 329 329 329 329 330 330 330 331 332 335 336 338 340 342 344 345 346 346 347 347 347 346 346 345 345 345 344 342 340 338 336 334 332 331 329 328 326 325
306 308 311 313 316 317 319 320 321 322 323 324 325 326 326 327 326 326 326 326 326 326 328 329 331 332 332 332 332 332 331 331 331 330 330 329 328 328 328 328 328 329 329 329 330 330 330 330 329 329 330 330 330 331 331 331 331 333 334 336 338 340 342 344 345 347 348 348 349 350 350 350 350 349 349 349 348 346 345 343 341 340 338 337 334 332 330 328
308 310 313 315 317 319 320 321 321 322 323 325 326 327 327 327 326 326 327 327 327 329 330 332 333 333 333 333 332 332 332 331 330 330 329 329 329 329 330 330 330 330 331 331 331 331 331 331 331 331 331 332 332 332 332 332 334 335 335 337 339 341 342 344 346 348 349 349 349 351 352 352 353 352 352 352 351 350 348 347 345 344 342 340 338 336 334 332
309 312 315 317 319 320 320 321 321 322 324 326 327 327 327 327 327 327 327 328 330 331 333 334 334 334 334 334 334 333 331 330 330 329 329 330 330 331 331 331 331 332 332 332 332 332 332 332 332 333 333 333 333 333 334 335 335 336 338 339 340 341 343 344 346 347 349 350 350 351 352 353 354 354 353 353 353 353 351 350 349 347 345 343 342 340 338 336
311 314 317 318 320 320 320 320 321 323 325 327 327 327 327 327 327 328 329 331 333 334 335 335 335 335 335 335 333 332 331 330 330 330 331 331 332 332 332 332 332 333 333 333 333 333 333 334 335 335 335 335 335 335 335 335 336 338 339 340 340 341 343 345 346 348 349 350 351 352 353 354 354 355 354 354 353 354 354 352 351 350 348 346 345 343 342 340
Height
10718 10720 10721 10722 10722 10722 10724 10726 10727 10728 10729 10730 10731 10732 10733 10734 10735 10736 10736 10737 10739 10739 10739 10740 10742 10743 10743 10744 10744 10744 10744 10744 10744 10744 10744 10744 10744 10743 10743 10743 10743 10742 10742 10742 10742 10741 10741 10741 10741 10741 10740 10740 10739 10738 10738 10738 10738 10736 10736 10737 10731 10726 10728 10732 10732 10728 10725 10724 10723 10722 10721 10721 10720 10717 10716 10718 10721 10720 10717 10715 10711 10708 10708 10709 10709 10709 10708 10707
10716 10718 10720 10721 10722 10721 10722 10724 10725 10726 10727 10728 10729 10730 10731 10732 10733 10733 10734 10735 10735 10736 10736 10737 10739 10739 10740 10741 10741 10741 10741 10741 10741 10741 10741 10740 10741 10740 10740 10739 10739 10739 10738 10738 10738 10738 10737 10737 10737 10736 10736 10735 10734 10733 10732 10731 10731 10730 10731 10730 10723 10719 10723 10726 10724 10719 10717 10716 10716 10717 10715 10714 10713 10709 10707 10710 10714 10711 10708 10706 10705 10703 10701 10700 10699 10699 10699 10698
10715 10716 10718 10719 10721 10721 10720 10722 10723 10724 10725 10726 10727 10728 10728 10729 10730 10731 10732 10732 10733 10733 10734 10735 10736 10736 10737 10737 10737 10737 10737 10738 10737 10737 10737 10737 10737 10736 10735 10735 10735 10735 10734 10734 10734 10733 10733 10732 10732 10731 10730 10730 10728 10727 10726 10725 10725 10724 10725 10723 10715 10715 10719 10718 10716 10712 10707 10705 10709 10712 10709 10706 10705 10701 10700 10702 10704 10702 10700 10699 10698 10696 10693 10691 10689 10688 10689 10689
10713 10715 10716 10717 10719 10720 10720 10720 10721 10722 10723 10724 10725 10725 10725 10726 10727 10728 10729 10730 10731 10731 10732 10732 10733 10733 10733 10734 10734 10733 10733 10734 10734 10733 10733 10733 10732 10731 10731 10731 10730 10730 10730 10729 10729 10728 10728 10727 10727 10726 10725 10724 10723 10723 10720 10719 10719 10719 10719 10714 10709 10710 10712 10711 10709 10705 10698 10696 10700 10704 10703 10701 10698 10694 10693 10693 10692 10693 10694 10693 10689 10686 10683 10682 10679 10679 10679 10679
10711 10713 10714 10715 10717 10718 10719 10719 10719 10720 10721 10721 10722 10722 10723 10723 10724 10725 10726 10727 10728 10729 10729 10729 10729 10730 10730 10730 10730 10728 10728 10729 10729 10728 10728 10727 10727 10726 10726 10726 10725 10725 10725 10724 10724 10723 10722 10722 10721 10721 10720 10718 10717 10717 10715 10713 10712 10712 10712 10706 10703 10703 10705 10705 10702 10696 10690 10688 10690 10692 10694 10695 10692 10688 10684 10682 10682 10685 10687 10686 10680 10675 10672 10670 10669 10669 10669 10669
10710 10711 10713 10714 10715 10715 10716 10717 10717 10718 10718 10719 10719 10720 10720 10721 10721 10722 10723 10724 10725 10725 10726 10726 10726 10726 10726 10726 10725 10724 10724 10725 10725 10723 10723 10723 10722 10722 10721 10721 10720 10720 10719 10719 10718 10717 10717 10716 10716 10715 10714 10711 10709 10710 10709 10708 10705 10705 10703 10698 10696 10696 10698 10698 10693 10687 10683 10681 10681 10680 10683 10686 10685 10681 10675 10672 10672 10675 10677 10676 10673 10666 10661 10659 10658 10658 10657 10656
10708 10709 10711 10712 10712 10713 10714 10715 10716 10716 10717 10717 10717 10718 10718 10718 10719 10719 10720 10721 10722 10722 10722 10722 10722 10722 10722 10722 10721 10720 10720 10721 10720 10719 10719 10718 10718 10717 10716 10716 10715 10714 10714 10713 10712 10711 10711 10710 10710 10709 10707 10705 10703 10702 10701 10700 10700 10699 10695 10690 10689 10689 10690 10688 10684 10679 10676 10674 10672 10670 10673 10676 10676 10672 10667 10663 10662 10662 10663 10664 10663 10659 10654 10650 10647 10646 10644 10642
10706 10707 10709 10710 10710 10711 10712 10713 10714 10714 10715 10715 10716 10716 10716 10716 10716 10716 10717 10718 10718 10719 10719 10719 10719 10719 10719 10719 10718 10717 10716 10717 10716 10715 10714 10714 10713 10712 10711 10710 10709 10708 10708 10707 10706 10705 10704 10703 10703 10702 10700 10698 10697 10695 10694 10692 10692 10692 10689 10685 10681 10679 10680 10679 10675 10671 10667 10665 10663 10662 10663 10665 10664 10661 10658 10655 10652 10649 10648 10649 10650 10650 10646 10641 10638 10634 10631 10628
10703 10705 10706 10707 10708 10709 10710 10710 10711 10712 10712 10713 10714 10714 10714 10714 10714 10714 10714 10715 10715 10716 10716 10716 10716 10716 10716 10715 10715 10714 10713 10712 10712 10711 10710 10709 10708 10707 10706 10705 10704 10703 10702 10701 10700 10699 10697 10697 10696 10695 10693 10691 10690 10687 10687 10685 10682 10682 10683 10680 10674 10669 10671 10670 10665 10661 10658 10654 10653 10653 10654 10652 10651 10650 10649 10647 10643 10638 10634 10633 10635 10636 10634 10630 10626 10622 10619 10617
10701 10702 10704 10705 10706 10707 10707 10708 10709 10709 10710 10710 10711 10712 10712 10712 10711 10711 10712 10712 10712 10712 10712 10713 10713 10712 10712 10712 10711 10710 10709 10708 10707 10706 10706 10705 10704 10703 10701 10700 10699 10698 10697 10695 10694 10692 10691 10689 10688 10687 10685 10683 10682 10679 10678 10676 10673 10672 10672 10671 10667 10662 10662 10661 10656 10651 10647 10644 10643 10645 10644 10641 10640 10639 10638 10637 10632 10627 10623 10620 10619 10618 10618 10616 10614 10611 10608 10605
10699 10700 10701 10703 10704 10704 10705 10705 10706 10706 10707 10707 10708 10708 10709 10709 10709 10709 10709 10709 10709 10709 10709 10709 10708 10708 10708 10708 10707 10706 10704 10704 10702 10701 10700 10699 10699 10697 10696 10695 10693 10692 10691 10689 10687 10686 10684 10682 10680 10679 10677 10675 10673 10671 10669 10667 10665 10663 10661 10661 10657 10654 10653 10651 10647 10641 10636 10633 10633 10635 10633 10632 10631 10628 10627 10624 10621 10617 10612 10608 10604 10602 10601 10600 10600 10598 10596 10593
10697 10698 10699 10700 10701 10701 10702 10702 10703 10703 10704 10704 10704 10705 10705 10706 10706 10706 10706 10706 10706 10705 10705 10705 10704 10704 10703 10703 10702 10701 10699 10698 10697 10696 10695 10694 10693 10691 10690 10689 10687 10686 10685 10683 10681 10679 10677 10675 10673 10671 10669 10667 10665 10663 10660 10657 10656 10653 10652 10651 10646 10644 10643 10640 10637 10632 10627 10623 10622 10621 10621 10622 10620 10617 10615 10611 10608 10604 10599 10595 10591 10588 10586 10585 10584 10584 10582 10580
10695 10696 10697 10698 10698 10698 10698 10699 10699 10700 10700 10700 10701 10701 10702 10702 10702 10702 10702 10702 10702 10701 10701 10701 10700 10699 10698 10698 10697 10695 10694 10693 10691 10690 10689 10688 10687 10685 10684 10683 10681 10680 10678 10676 10674 10672 10670 10668 10666 10663 10660 10659 10657 10654 10652 10649 10646 10643 10642 10642 10637 10634 10633 10629 10626 10623 10617 10613 10611 10610 10610 10610 10607 10605 10603 10599 10594 10589 10585 10582 10578 10576 10573 10571 10569 10567 10565 10563
10693 10694 10695 10695 10695 10695 10695 10696 10696 10696 10697 10697 10697 10698 10698 10698 10698 10698 10698 10698 10698 10697 10696 10696 10695 10694 10693 10693 10691 10690 10689 10688 10686 10685 10683 10682 10681 10680 10678 10677 10675 10673 10671 10669 10667 10665 10663 10660 10658 10655 10651 10650 10648 10645 10642 10639 10636 10633 10631 10630 10626 10624 10622 10618 10615 10612 10607 10601 10599 10598 10597 10597 10593 10591 10590 10585 10580 10575 10571 10569 10565 10563 10560 10557 10554 10551 10549 10546
10691 10692 10692 10692 10692 10693 10693 10693 10693 10693 10693 10694 10694 10694 10694 10694 10694 10694 10694 10694 10693 10692 10691 10691 10690 10689 10688 10687 10686 10685 10684 10682 10681 10679 10678 10676 10675 10674 10673 10671 10669 10667 10664 10662 10660 10658 10654 10652 10650 10646 10642 10640 10639 10636 10633 10629 10626 10624 10621 10617 10615 10614 10611 10608 10604 10600 10595 10590 10587 10585 10584 10583 10579 10578 10576 10571 10566 10561 10558 10555 10552 10548 10545 10542 10539 10536 10534 10531
10689 10690 10690 10690 10690 10690 10690 10690 10690 10690 10690 10690 10691 10691 10691 10690 10690 10690 10690 10689 10689 10688 10687 10686 10685 10684 10683 10682 10681 10680 10678 10677 10676 10675 10673 10671 10670 10668 10666 10664 10662 10660 10657 10654 10652 10650 10646 10643 10641 10637 10633 10631 10629 10627 10623 10619 10616 10614 10612 10607 10603 10601 10599 10596 10593 10589 10585 10579 10577 10575 10571 10569 10566 10565 10563 10558 10553 10547 10543 10541 10538 10534 10530 10527 10524 10522 10519 10517
10687 10688 10688 10688 10688 10688 10688 10688 10688 10688 10688 10687 10687 10687 10687 10687 10686 10686 10686 10685 10684 10683 10682 10681 10680 10679 10678 10677 10676 10675 10674 10672 10671 10669 10668 10666 10664 10662 10659 10657 10654 10652 10649 10646 10643 10641 10638 10634 10631 10628 10625 10622 10619 10617 10614 10610 10606 10603 10601 10598 10593 10590 10586 10583 10580 10577 10572 10568 10567 10565 10560 10556 10554 10553 10551 10546 10541 10535 10531 10528 10524 10520 10517 10514 10511 10508 10506 10502
10686 10686 10686 10686 10686 10686 10686 10685 10685 10685 10685 10685 10684 10684 10684 10683 10683 10682 10682 10681 10680 10679 10678 10677 10676 10675 10673 10673 10672 10670 10669 10667 10665 10663 10662 10659 10657 10655 10652 10650 10647 10644 10641 10639 10635 10632 10630 10626 10622 10619 10616 10614 10610 10607 10604 10600 10596 10592 10590 10588 10584 10579 10575 10571 10568 10564 10561 10558 10556 10553 10548 10544 10542 10541 10539 10535 10529 10524 10520 10516 10512 10509 10506 10503 10500 10496 10493 10489
10684 10684 10684 10684 10684 10684 10683 10683 10683 10682 10682 10682 10681 10681 10680 10680 10679 10679 10678 10677 10676 10676 10674 10673 10672 10671 10670 10668 10667 10665 10663 10662 10660 10658 10656 10653 10651 10649 10646 10643 10641 10636 10633 10631 10628 10624 10621 10617 10613 10610 10607 10605 10602 10599 10595 10590 10587 10583 10580 10577 10572 10569 10565 10560 10556 10553 10551 10549 10547 10543 10538 10535 10533 10531 10528 10524 10520 10514 10510 10505 10501 10498 10495 10492 10488 10485 10481 10477
10682 10682 10682 10682 10682 10682 10681 10681 10680 10680 10679 10679 10678 10677 10677 10676 10676 10675 10674 10673 10673 10672 10671 10669 10668 10667 10665 10664 10662 10661 10658 10657 10656 10653 10650 10648 10645 10643 10640 10637 10635 10631 10626 10623 10621 10617 10613 10609 10605 10601 10597 10594 10592 10589 10585 10580 10577 10574 10570 10566 10561 10559 10556 10551 10546 10542 10540 10539 10537 10534 10529 10526 10523 10521 10519 10515 10510 10506 10500 10495 10491 10488 10484 10481 10477 10473 10469 10465
10680 10680 10680 10680 10680 10679 10679 10678 10678 10677 10676 10676 10675 10674 10674 10673 10672 10672 10671 10670 10669 10668 10667 10666 10665 10663 10661 10660 10658 10657 10654 10653 10651 10648 10644 10642 10639 10636 10633 10630 10627 10624 10619 10615 10612 10609 10605 10602 10597 10593 10589 10585 10581 10578 10574 10572 10569 10566 10562 10557 10553 10549 10546 10542 10538 10534 10531 10528 10527 10524 10519 10516 10514 10511 10509 10505 10501 10498 10492 10486 10481 10478 10474 10470 10466 10461 10458 10454
10679 10679 10679 10678 10678 10677 10677 10676 10675 10674 10674 10673 10672 10672 10671 10670 10669 10668 10667 10667 10666 10665 10664 10663 10661 10660 10658 10656 10654 10652 10650 10647 10645 10642 10639 10636 10633 10629 10626 10622 10619 10615 10611 10607 10603 10600 10597 10593 10589 10584 10580 10577 10573 10569 10565 10562 10560 10557 10553 10550 10546 10541 10538 10534 10529 10525 10523 10520 10518 10513 10509 10508 10505 10500 10497 10494 10492 10489 10483 10477 10472 10468 10463 10459 10455 10451 10447 10444
10677 10677 10677 10676 10676 10675 10674 10674 10673 10672 10671 10671 10670 10669 10668 10668 10667 10666 10665 10664 10663 10662 10661 10659 10658 10656 10654 10652 10650 10647 10645 10642 10639 10635 10632 10629 10626 10622 10619 10614 10611 10607 10603 10599 10594 10591 10588 10585 10581 10577 10573 10570 10566 10561 10557 10554 10551 10548 10545 10541 10538 10534 10529 10526 10521 10517 10514 10512 10508 10504 10502 10501 10495 10489 10486 10484 10481 10478 10473 10467 10462 10457 10453 10448 10444 10441 10437 10434
10675 10675 10675 10675 10674 10673 10672 10672 10671 10670 10669 10669 10668 10667 10667 10666 10665 10664 10663 10662 10660 10659 10657 10656 10654 10651 10649 10646 10645 10643 10639 10636 10632 10629 10625 10622 10618 10614 10611 10607 10603 10599 10595 10592 10588 10584 10581 10577 10574 10570 10567 10563 10559 10555 10551 10547 10543 10540 10538 10534 10531 10526 10522 10517 10513 10510 10507 10503 10499 10494 10493 10493 10487 10480 10478 10474 10470 10467 10462 10456 10451 10447 10442 10438 10434 10431 10427 10423
10674 10674 10673 10673 10672 10671 10671 10670 10669 10669 10668 10667 10667 10666 10665 10664 10663 10661 10660 10659 10657 10655 10653 10651 10650 10647 10644 10641 10638 10636 10634 10630 10626 10622 10618 10614 10610 10606 10603 10599 10596 10592 10588 10585 10582 10578 10574 10570 10567 10563 10560 10557 10553 10549 10546 10542 10537 10533 10531 10527 10524 10520 10515 10510 10506 10503 10499 10495 10491 10485 10481 10483 10480 10473 10468 10465 10460 10456 10451 10445 10440 10436 10431 10427 10423 10419 10415 10412
10672 10672 10671 10671 10670 10670 10669 10669 10668 10668 10667 10666 10665 10664 10663 10662 10661 10659 10657 10655 10653 10651 10648 10646 10645 10642 10640 10636 10632 10629 10626 10623 10619 10615 10611 10607 10603 10600 10596 10593 10590 10586 10582 10579 10576 10572 10568 10564 10560 10557 10554 10551 10547 10543 10539 10536 10531 10527 10523 10520 10516 10512 10507 10502 10498 10495 10491 10487 10483 10476 10469 10472 10473 10465 10457 10453 10449 10444 10439 10434 10429 10424 10420 10415 10411 10408 10404 10399
10671 10670 10670 10670 10669 10669 10668 10668 10667 10666 10666 10665 10664 10662 10661 10659 10658 10656 10653 10651 10649 10647 10644 10641 10639 10636 10633 10630 10627 10623 10619 10615 10611 10607 10604 10601 10597 10594 10590 10587 10583 10579 10576 10573 10569 10566 10562 10558 10554 10551 10548 10544 10541 10537 10533 10529 10525 10521 10516 10512 10508 10503 10499 10494 10490 10486 10482 10480 10474 10465 10460 10461 10462 10458 10450 10443 10436 10431 10426 10422 10417 10412 10408 10404 10400 10396 10391 10387
10669 10669 10669 10668 10668 10668 10667 10667 10666 10665 10664 10663 10661 10660 10658 10656 10654 10652 10650 10647 10644 10642 10641 10637 10634 10630 10627 10624 10620 10616 10612 10608 10605 10601 10598 10595 10592 10588 10585 10581 10578 10574 10570 10567 10563 10559 10556 10553 10549 10546 10542 10539 10536 10532 10527 10523 10520 10515 10511 10506 10501 10496 10492 10487 10482 10477 10473 10472 10465 10455 10451 10450 10450 10448 10441 10433 10426 10418 10414 10410 10404 10400 10396 10392 10388 10383 10378 10373
10668 10668 10668 10667 10667 10666 10666 10665 10664 10663 10662 10660 10659 10657 10655 10653 10651 10649 10647 10644 10641 10638 10636 10632 10629 10625 10621 10617 10613 10609 10606 10602 10599 10596 10593 10590 10586 10583 10579 10575 10572 10568 10563 10560 10557 10553 10550 10548 10544 10541 10537 10532 10528 10525 10521 10517 10513 10509 10505 10500 10494 10489 10485 10479 10474 10471 10465 10462 10457 10448 10442 10438 10438 10438 10430 10422 10416 10407 10400 10396 10392 10387 10383 10378 10374 10369 10365 10360
10667 10667 10666 10666 10666 10665 10664 10663 10662 10661 10659 10658 10656 10654 10652 10649 10647 10645 10643 10641 10637 10633 10630 10627 10623 10619 10615 10611 10607 10603 10600 10596 10592 10589 10587 10584 10581 10578 10574 10571 10568 10565 10560 10557 10553 10549 10545 10542 10539 10535 10531 10526 10521 10516 10514 10510 10506 10503 10498 10494 10488 10481 10476 10470 10465 10461 10456 10451 10445 10438 10432 10426 10425 10425 10418 10410 10404 10395 10386 10381 10377 10373 10368 10363 10359 10354 10350 10345
10666 10666 10665 10665 10664 10663 10662 10661 10660 10658 10657 10655 10653 10651 10648 10646 10644 10641 10638 10636 10633 10628 10625 10621 10617 10613 10609 10605 10601 10598 10595 10592 10588 10584 10581 10579 10576 10573 10569 10566 10562 10558 10554 10549 10546 10542 10538 10536 10532 10529 10524 10520 10514 10508 10504 10501 10498 10495 10490 10487 10483 10476 10469 10461 10455 10451 10445 10440 10434 10426 10420 10414 10411 10410 10405 10398 10392 10384 10375 10367 10362 10358 10353 10348 10344 10338 10334 10330
10665 10664 10664 10663 10663 10661 10660 10659 10657 10656 10654 10652 10649 10647 10645 10642 10640 10637 10634 10631 10628 10623 10619 10615 10611 10607 10603 10600 10597 10594 10590 10587 10584 10580 10576 10573 10570 10567 10564 10561 10558 10554 10549 10544 10539 10534 10532 10530 10527 10524 10519 10514 10509 10503 10496 10491 10487 10484 10479 10476 10473 10469 10463 10454 10446 10441 10435 10430 10424 10414 10409 10404 10398 10394 10388 10383 10378 10371 10362 10354 10349 10345 10339 10334 10329 10324 10320 10315
10663 10663 10663 10662 10661 10660 10658 10656 10655 10653 10651 10648 10646 10643 10641 10639 10636 10633 10629 10626 10622 10618 10614 10610 10605 10602 10598 10595 10592 10589 10586 10583 10580 10577 10573 10570 10567 10564 10561 10558 10556 10553 10550 10545 10539 10532 10528 10525 10521 10518 10514 10508 10503 10498 10491 10485 10480 10476 10471 10467 10463 10460 10456 10449 10440 10435 10428 10421 10413 10402 10396 10392 10386 10378 10370 10365 10361 10354 10346 10340 10336 10330 10324 10319 10314 10309 10305 10300
10662 10661 10661 10660 10659 10657 10656 10654 10652 10650 10647 10645 10643 10640 10637 10634 10631 10628 10624 10620 10616 10612 10608 10604 10600 10597 10594 10591 10588 10585 10582 10578 10575 10572 10569 10566 10563 10560 10557 10553 10550 10547 10544 10540 10535 10529 10524 10521 10517 10513 10508 10503 10498 10492 10485 10479 10474 10469 10464 10458 10454 10449 10446 10441 10433 10427 10422 10415 10404 10393 10385 10379 10373 10365 10355 10348 10342 10337 10332 10327 10321 10316 10309 10304 10299 10294 10289 10284
10660 10660 10659 10658 10657 10655 10653 10651 10649 10647 10644 10642 10640 10637 10634 10630 10627 10623 10619 10615 10611 10607 10603 10600 10597 10593 10590 10587 10583 10581 10578 10575 10571 10568 10565 10562 10559 10556 10553 10549 10545 10541 10538 10534 10529 10522 10516 10514 10511 10506 10501 10496 10491 10485 10478 10471 10465 10459 10453 10447 10442 10437 10433 10428 10420 10412 10408 10404 10394 10384 10375 10367 10359 10351 10342 10334 10328 10323 10318 10313 10307 10301 10295 10290 10285 10279 10274 10270
10659 10658 10657 10656 10654 10653 10651 10649 10646 10644 10641 10639 10636 10633 10630 10626 10622 10619 10615 10611 10607 10603 10599 10596 10593 10590 10586 10583 10580 10577 10574 10572 10569 10566 10562 10558 10555 10552 10549 10546 10541 10537 10534 10530 10526 10518 10510 10506 10503 10498 10492 10488 10483 10477 10470 10464 10458 10451 10446 10438 10430 10424 10420 10416 10410 10400 10392 10387 10379 10370 10363 10354 10345 10337 10329 10321 10315 10310 10304 10299 10293 10287 10282 10277 10272 10266 10261 10256
10657 10656 10655 10653 10652 10650 10648 10646 10643 10641 10638 10635 10632 10629 10625 10622 10618 10614 10610 10606 10602 10599 10595 10592 10589 10586 10583 10580 10576 10573 10570 10568 10566 10563 10559 10555 10551 10548 10544 10541 10537 10533 10529 10525 10521 10515 10507 10500 10496 10492 10486 10480 10475 10469 10463 10458 10451 10444 10440 10433 10423 10415 10407 10402 10399 10392 10381 10372 10363 10353 10346 10340 10332 10324 10316 10308 10301 10296 10290 10285 10280 10274 10269 10264 10258 10253 10248 10243
10655 10654 10653 10651 10649 10647 10645 10643 10640 10638 10635 10631 10628 10625 10621 10618 10614 10610 10606 10602 10598 10595 10592 10589 10585 10582 10579 10576 10573 10569 10566 10563 10561 10558 10555 10551 10547 10543 10539 10536 10532 10527 10523 10518 10514 10509 10503 10495 10489 10486 10481 10474 10468 10462 10455 10449 10442 10434 10430 10425 10417 10409 10401 10390 10384 10380 10372 10363 10353 10341 10330 10324 10319 10312 10304 10296 10289 10283 10277 10271 10267 10261 10256 10251 10246 10240 10235 10230
10653 10652 10650 10648 10646 10644 10642 10640 10637 10634 10631 10628 10624 10621 10617 10613 10609 10605 10602 10598 10595 10591 10588 10585 10582 10579 10576 10573 10570 10566 10563 10559 10556 10553 10550 10547 10543 10538 10534 10531 10527 10522 10517 10512 10507 10503 10498 10491 10483 10478 10473 10468 10461 10454 10446 10438 10430 10422 10415 10411 10404 10398 10392 10382 10373 10367 10360 10351 10344 10334 10319 10310 10306 10300 10292 10285 10278 10271 10266 10260 10255 10249 10243 10239 10234 10229 10224 10218
10651 10649 10647 10646 10644 10641 10639 10636 10633 10630 10627 10624 10621 10617 10613 10609 10605 10601 10598 10594 10591 10588 10585 10581 10578 10575 10573 10569 10566 10563 10560 10556 10553 10549 10546 10542 10538 10534 10529 10525 10520 10516 10511 10506 10501 10496 10491 10485 10478 10470 10464 10459 10452 10445 10438 10431 10423 10415 10407 10401 10395 10388 10381 10372 10360 10352 10345 10337 10330 10323 10312 10301 10296 10289 10281 10275 10268 10262 10256 10250 10244 10238 10233 10228 10223 10218 10213 10208
10648 10647 10645 10643 10641 10638 10636 10633 10630 10627 10623 10620 10616 10612 10608 10604 10601 10597 10594 10591 10587 10584 10581 10578 10575 10572 10569 10566 10563 10560 10556 10552 10549 10545 10541 10538 10534 10529 10525 10519 10515 10510 10505 10500 10495 10490 10484 10478 10472 10465 10458 10451 10444 10436 10431 10425 10416 10408 10402 10395 10389 10382 10374 10366 10353 10341 10333 10326 10319 10312 10304 10295 10288 10281 10273 10266 10259 10253 10248 10242 10236 10230 10224 10219 10214 10209 10204 10198
10646 10644 10642 10640 10638 10635 10632 10629 10626 10623 10619 10616 10612 10608 10604 10600 10597 10594 10590 10587 10584 10581 10578 10575 10572 10569 10566 10563 10560 10556 10552 10549 10545 10541 10537 10533 10528 10524 10520 10515 10510 10505 10500 10495 10490 10484 10479 10472 10465 10457 10450 10444 10438 10429 10422 10416 10409 10401 10394 10388 10381 10374 10366 10358 10348 10335 10324 10316 10310 10302 10293 10286 10279 10272 10265 10258 10251 10245 10239 10233 10227 10221 10215 10210 10204 10199 10193 10188
10643 10641 10639 10637 10634 10632 10629 10625 10622 10619 10615 10612 10608 10604 10600 10597 10594 10590 10587 10584 10581 10578 10575 10572 10569 10566 10563 10560 10557 10554 10549 10545 10541 10537 10532 10528 10524 10519 10515 10510 10504 10499 10494 10489 10484 10478 10473 10467 10460 10451 10442 10434 10426 10417 10410 10405 10400 10394 10387 10381 10374 10366 10358 10349 10340 10330 10319 10310 10303 10293 10283 10277 10271 10263 10256 10250 10243 10236 10229 10223 10218 10212 10206 10200 10194 10188 10182 10176
10641 10639 10636 10634 10631 10628 10625 10622 10619 10615 10611 10608 10604 10600 10597 10593 10590 10587 10584 10581 10578 10575 10572 10569 10567 10563 10560 10557 10553 10550 10546 10542 10537 10532 10528 10524 10519 10515 10510 10505 10499 10493 10488 10482 10476 10470 10464 10459 10454 10446 10438 10429 10420 10412 10404 10397 10391 10387 10382 10376 10368 10360 10352 10343 10333 10324 10314 10304 10298 10289 10278 10270 10265 10258 10251 10244 10236 10229 10222 10216 10210 10204 10198 10192 10186 10180 10174 10168
10638 10636 10633 10631 10628 10625 10622 10618 10615 10611 10607 10603 10600 10596 10593 10590 10587 10584 10581 10578 10576 10573 10570 10567 10564 10561 10558 10554 10550 10546 10542 10538 10533 10529 10524 10519 10515 10510 10505 10499 10494 10487 10481 10475 10468 10462 10456 10450 10445 10438 10432 10426 10418 10411 10404 10396 10389 10383 10377 10371 10363 10354 10345 10336 10327 10318 10308 10297 10290 10283 10273 10263 10257 10252 10246 10240 10233 10225 10218 10211 10204 10198 10191 10185 10179 10173 10167 10161
10635 10633 10630 10628 10625 10622 10618 10615 10611 10607 10603 10600 10597 10593 10590 10587 10584 10581 10579 10576 10573 10570 10567 10564 10561 10557 10554 10550 10546 10542 10538 10533 10529 10525 10520 10515 10510 10505 10499 10494 10488 10481 10475 10468 10461 10454 10447 10441 10434 10428 10421 10415 10408 10401 10395 10389 10383 10376 10371 10364 10356 10347 10338 10329 10319 10311 10301 10291 10282 10275 10267 10258 10250 10244 10239 10233 10226 10220 10212 10205 10198 10191 10184 10178 10171 10165 10159 10152
10632 10630 10627 10624 10621 10618 10615 10611 10607 10604 10600 10597 10593 10590 10587 10584 10582 10579 10576 10573 10570 10567 10564 10561 10558 10554 10549 10545 10541 10538 10534 10530 10526 10521 10516 10511 10505 10500 10494 10488 10482 10475 10468 10461 10454 10446 10438 10431 10424 10417 10411 10404 10398 10392 10385 10379 10373 10368 10363 10357 10349 10340 10331 10322 10312 10304 10296 10287 10277 10269 10261 10253 10244 10236 10230 10223 10217 10210 10203 10197 10191 10185 10179 10172 10165 10158 10151 10144
10630 10627 10624 10621 10618 10615 10611 10607 10604 10600 10597 10593 10590 10587 10584 10582 10579 10576 10574 10571 10568 10565 10562 10558 10555 10551 10547 10542 10538 10533 10530 10525 10521 10516 10511 10506 10501 10495 10489 10483 10476 10469 10462 10454 10446 10438 10430 10423 10416 10409 10402 10396 10390 10384 10377 10370 10365 10359 10354 10349 10342 10333 10324 10315 10306 10297 10289 10281 10273 10264 10254 10246 10238 10231 10224 10216 10209 10202 10196 10190 10184 10178 10171 10164 10157 10150 10143 10136
10627 10624 10621 10618 10615 10611 10608 10604 10600 10597 10594 10591 10588 10585 10582 10579 10576 10574 10571 10569 10566 10563 10560 10556 10553 10549 10545 10541 10536 10531 10526 10521 10516 10511 10506 10501 10495 10490 10484 10477 10470 10462 10455 10447 10439 10431 10424 10416 10410 10403 10397 10391 10384 10378 10373 10366 10359 10352 10346 10341 10336 10328 10319 10311 10302 10292 10282 10275 10268 10260 10251 10242 10233 10226 10219 10213 10206 10198 10191 10184 10177 10170 10164 10157 10150 10144 10137 10130
10623 10621 10618 10615 10611 10608 10604 10600 10597 10594 10591 10588 10585 10582 10580 10577 10574 10572 10569 10567 10564 10560 10557 10553 10550 10546 10542 10538 10534 10529 10524 10519 10513 10508 10503 10497 10491 10485 10478 10471 10464 10456 10448 10440 10433 10425 10418 10411 10404 10397 10391 10385 10379 10373 10368 10361 10354 10347 10340 10333 10328 10322 10314 10306 10298 10290 10280 10271 10264 10256 10249 10240 10231 10223 10216 10210 10203 10195 10187 10179 10172 10165 10158 10152 10145 10138 10130 10123
10620 10617 10614 10611 10608 10604 10601 10597 10594 10591 10588 10585 10583 10580 10577 10575 10572 10569 10567 10564 10561 10558 10554 10550 10546 10543 10539 10534 10530 10525 10521 10516 10510 10505 10499 10493 10486 10480 10472 10465 10457 10449 10442 10434 10427 10419 10412 10405 10398 10392 10385 10379 10374 10368 10362 10356 10349 10342 10334 10326 10319 10315 10309 10301 10293 10286 10279 10270 10260 10252 10244 10237 10229 10220 10212 10205 10199 10192 10184 10176 10168 10160 10152 10145 10139 10132 10124 10116
10617 10614 10611 10608 10605 10601 10598 10595 10592 10589 10586 10583 10580 10577 10575 10572 10570 10567 10565 10562 10559 10555 10552 10548 10544 10540 10536 10531 10527 10522 10517 10511 10506 10500 10494 10487 10480 10474 10466 10458 10450 10443 10435 10428 10421 10415 10408 10401 10394 10387 10381 10374 10369 10363 10358 10352 10345 10338 10330 10322 10313 10306 10300 10295 10287 10278 10270 10263 10255 10246 10238 10230 10223 10216 10207 10199 10192 10186 10179 10171 10164 10156 10148 10139 10131 10124 10117 10109